Find Starlink 30295

NORAD ID: 57683 Int'l Des: 2023-124 Owner: SPXS Country: US Constellation: starlink operational
LEOCIRCULAR

Live Position

Loading 3D Globe...

About Starlink 30295

Description loading...

Upcoming Passes

Passes for default location (London). Set your location on the main map for personalized predictions.

Altitude History

Loading altitude history...

Two-Line Element Set

1 57683U 23124W 26125.77474297 .00000785 00000-0 38621-4 0 9998
2 57683 53.1606 301.9140 0001024 76.7395 283.3720 15.30195488152304
Epoch: May 5, 2026 • Age: 21 hours

Current Status

Altitude 478.4 km
Velocity 7.63 km/s
Sub-Earth Point 40.98°N, 114.39°W
Launch Date Aug 22, 2023
Age 2.7 years
Type internet

Technical Details

Classification Payload
Mass 730.00 kg
Dry Mass 700.00 kg
Total Mass 730.00 kg
Length 0.30 m
Diameter 4.10 m
Span 29.00 m
Shape Box + pan
Manufacturer SPXS
Bus Type Starlink V2M
Phase Status In Orbit
Owner/State SPXS/US

Most Searched